Regional Weather Roundup
Issued by NWS

Home | Current Version | Previous Version | Text Only | Print | Product List | Glossary Off
Versions: 1 2 3 4 5 6 7 8 9 10 11 12 13 14 15 16 17 18 19 20 21 22 23 24 25 26 27 28 29 30 31 32 33 34 35 36 37 38 39 40 41 42 43 44 45 46 47 48 49 50

000
ASUS45 KBOU 240807
RWRCO

WEATHER ROUNDUP FOR COLORADO
NATIONAL WEATHER SERVICE DENVER/BOULDER CO
100 AM MST MON NOV 24 2014

NOTE: "FAIR" INDICATES FEW OR NO CLOUDS BELOW 12000 FEET WITH NO
SIGNIFICANT WEATHER AND/OR OBSTRUCTIONS TO VISIBILITY.

COZ001>005-013-030-031-240900-
...NORTHWEST COLORADO...

CITY           SKY/WX    TMP DP  RH WIND       PRES   REMARKS
CRAIG          CLOUDY    19  12  74 E3        30.06F
HAYDEN         CLOUDY    19  10  68 CALM      30.05S
MEEKER         CLOUDY    14   9  80 CALM      30.10S
MOUNT WERNER   NOT AVBL
STEAMBOAT SPGS CLOUDY    19  15  86 E6        30.05F WCI  10
WALDEN         PTCLDY    14   5  67 W8        29.91F WCI   3
$$

COZ006>008-011-240900-
...WEST CENTRAL VALLEYS...

CITY           SKY/WX    TMP DP  RH WIND       PRES   REMARKS
GRAND JUNCTION CLEAR     18  14  84 E5        30.13S WCI  11
MONTROSE       CLEAR     19  12  74 SE9       30.16S WCI   8
EAGLE          CLOUDY    19  16  86 E6        30.08S WCI  11
RIFLE          PTCLDY    19  11  70 SE5       30.12S WCI  12
DELTA          CLEAR     26  15  65 NE7       30.15R WCI  18
NUCLA          CLEAR     23  14  68 E9        30.18S WCI  13
$$

COZ017>023-064>068-240900-
...SOUTHWEST COLORADO...

CITY           SKY/WX    TMP DP  RH WIND       PRES   REMARKS
DURANGO        CLEAR     27   4  37 N15       30.06F WCI  15
CORTEZ         CLEAR     15  11  83 NE9       30.15F WCI   3
PAGOSA SPRINGS CLEAR     21   3  45 W6        30.02S WCI  14
TELLURIDE      NOT AVBL
WOLF CREEK PAS PTCLDY     5 -17  36 MISG      29.91F
$$

COZ009-010-012-014-032>034-037-058>063-240900-
...CENTRAL COLORADO...

CITY           SKY/WX    TMP DP  RH WIND       PRES   REMARKS
ASPEN          FLURRIES  18  10  71 CALM      30.04R
BUENA VISTA    PTCLDY    19   0  44 W7        29.94S WCI   9
COPPER MTN       N/A      5   0  78 W29G39    29.85F WCI -19
BERTHOUD PASS  SNOW      -2  -8  78 NW33G45   29.78F VSB 1/2 WCI -30
COTTONWOOD PAS PTCLDY    18  -6  35 W20G39    29.85F WCI   1
GUNNISON       PTCLDY     9   3  78 CALM      30.08S
KREMMLING      FLURRIES  21  12  68 W7        30.01S WCI  13
LEADVILLE      FLURRIES   7   3  84 N3        29.94R
MONARCH PASS   CLOUDY     1  -4  78 W41G123   29.92F WCI -27
SALIDA         PTCLDY    23   1  38 W15       30.02F WCI  10
SUNLIGHT         N/A    N/A N/A N/A MISG      29.96F
WILKERSON PASS CLEAR      5  -4  66 NW9G18    29.84S WCI  -9
$$

COZ069>075-240900-
...SAN LUIS VALLEY/SANGRE DE CRISTO MOUNTAINS...

CITY           SKY/WX    TMP DP  RH WIND       PRES   REMARKS
ALAMOSA        PTCLDY    11   2  67 NE5       30.00S WCI   3
LA VETA PASS   CLEAR      9   0  66 S9        29.88F WCI  -5
SAGUACHE       NOT AVBL
$$

COZ035-036-038>040-240900-
...NORTHERN COLORADO FRONT RANGE...

CITY           SKY/WX    TMP DP  RH WIND       PRES   REMARKS
DENVER INTL AP PTCLDY    26   9  48 W12       29.85F WCI  16
DMNS CITY PARK   N/A     31   2  29 W8G16     29.87F WCI  23
AURORA         PTCLDY    26   8  45 SW12      29.88F WCI  16
FRONT RANGE AP CLEAR     28  14  54 W15       29.86F WCI  17
ERIE MUNI ARPT PTCLDY    28   6  39 SW5       29.87F WCI  23
BOULDER MUN AP PTCLDY    32   3  29 W10G24    29.86S WCI  24
CENTENNIAL     PTCLDY    26   5  40 W8        29.87F WCI  18
BROOMFIELD     PTCLDY    32   5  32 W29G36    29.86F WCI  18
FORT COLLINS   CLEAR     34   7  32 NW20G26   29.86S WCI  22
LONGMONT       CLEAR     34   6  30 W13G18    29.88F WCI  25
$$

COZ041-046-047-076>085-087-088-240900-
...PIKES PEAK/PALMER DIVIDE AND SOUTHERN FOOTHILLS...

CITY           SKY/WX    TMP DP  RH WIND       PRES   REMARKS
COLO. SPRINGS  PTCLDY    25   7  46 NW15G23   29.89F WCI  13
A. F. ACADEMY  CLEAR     23   4  45 W14G24    29.87F WCI  10
ELLICOTT       NOT AVBL
FALCON         NOT AVBL
FORT CARSON    CLEAR     20  13  75 W7        29.87F WCI  11
LIMON          CLEAR     16   8  71 W13       29.86F WCI   2
MONUMENT HILL  PTCLDY    10   1  67 W7        29.85F WCI   0
TRINIDAD       CLEAR     19  16  88 W9        29.94S WCI   8
$$

COZ042>045-048>051-090-091-240900-
...NORTHEAST COLORADO...

CITY           SKY/WX    TMP DP  RH WIND       PRES   REMARKS
GREELEY ARPT   CLEAR     19   7  58 NW5       29.87S WCI  13
AKRON          CLEAR     21  15  78 W15       29.82F WCI   8
BURLINGTON     CLEAR     26  14  60 NW16      29.84F WCI  14
WRAY           CLEAR     28  17  63 W14       29.81F WCI  16
STERLING       CLEAR     27  18  69 W12       29.83F WCI  16
HOLYOKE        CLEAR     32  19  59 W18G26    29.78F WCI  20
FORT MORGAN    CLEAR     18  13  83 W9        29.86F WCI   7
$$

COZ086-089-092>099-240900-
...SOUTHEAST COLORADO...

CITY           SKY/WX    TMP DP  RH WIND       PRES   REMARKS
PUEBLO         CLEAR     22  16  78 N5        29.92F WCI  16
LA JUNTA       CLEAR     26  22  84 W13       29.91F WCI  15
LAMAR          CLEAR     27  21  78 W12       29.90F WCI  17
SPRINGFIELD      N/A     26  22  84 W10       29.90F WCI  16
$$



USA.gov is the U.S. government's official web portal to all federal, state and local government web resources and services.